Murray, KY

1:24 AM CDT on October 23, 2019 (GMT -0500)
Kyle-Oakley

Weather History for KCEY - June, 2019

Change the Weather History Date:

Thursday, June 13, 2019

  Actual Average (WUND) Record (WUND)
Temperature  
Mean Temperature 65 °F -  
Max Temperature 75 °F - - (-1)
Min Temperature 55 °F - - (-1)
Growing Degree Days 15 (Base 50)    
Moisture  
Dew Point 51 °F    
Average Humidity 65    
Maximum Humidity 100    
Minimum Humidity 31    
Precipitation  
Precipitation 0.00 in - - ()
Sea Level Pressure  
Sea Level Pressure 30.03 in    
Wind  
Wind Speed 8 mph (West)    
Max Wind Speed 18 mph    
Max Gust Speed 28 mph    
Visibility 10 miles    
Events      
Averages and records for this station are not official NWS values.
T = Trace of Precipitation, MM = Missing Value Source: NWS Daily Summary

Daily Weather History Graph

Daily Weather History Graph

Search for Another Location

Airport or City:

Astronomy

Jun. 13, 2019 Rise Set
Actual Time 5:34 AM CDT 8:12 PM CDT
Civil Twilight 5:03 AM CDT 8:43 PM CDT
Nautical Twilight 4:25 AM CDT 9:21 PM CDT
Astronomical Twilight 3:43 AM CDT 10:04 PM CDT
Moon 4:33 PM CDT (6/13) 3:12 AM CDT (6/13)
Length of Visible Light 15h 39m
Length of Day
14h 38m
Waxing Gibbous, 85% of the Moon is Illuminated
Jun 13
Waxing Gibbous
Jun 17
Full
Jun 25
Last Quarter
Jul 2
New
Jul 9
First Quarter

Hourly Weather History & Observations

Time (CDT) Temp. Dew Point Humidity Pressure Visibility Wind Dir Wind Speed Gust Speed Precip Events Conditions
12:15 AM 59.0 °F 59.0 °F 100% 29.90 in 10.0 mi SW 5.8 mph - N/A   Clear
12:35 AM 59.0 °F 59.0 °F 100% 29.89 in 10.0 mi SW 6.9 mph - N/A   Clear
12:55 AM 57.2 °F 57.2 °F 100% 29.89 in 10.0 mi SW 5.8 mph - N/A   Clear
1:15 AM 57.2 °F 57.2 °F 100% 29.90 in 10.0 mi SW 5.8 mph - N/A   Clear
1:35 AM 59.0 °F 59.0 °F 100% 29.90 in 10.0 mi SW 5.8 mph - N/A   Mostly Cloudy
1:55 AM 57.2 °F 57.2 °F 100% 29.90 in 10.0 mi SW 8.1 mph - N/A   Mostly Cloudy
2:15 AM 57.2 °F 57.2 °F 100% 29.91 in 10.0 mi WSW 8.1 mph - N/A   Scattered Clouds
2:35 AM 57.2 °F 57.2 °F 100% 29.91 in 10.0 mi WSW 5.8 mph - N/A   Clear
2:55 AM 57.2 °F 57.2 °F 100% 29.91 in 10.0 mi WSW 6.9 mph - N/A   Clear
3:15 AM 57.2 °F 57.2 °F 100% 29.91 in 10.0 mi West 5.8 mph - N/A   Clear
3:35 AM 57.2 °F 57.2 °F 100% 29.92 in 10.0 mi WSW 5.8 mph - N/A   Clear
3:55 AM 57.2 °F 57.2 °F 100% 29.92 in 10.0 mi WSW 8.1 mph - N/A   Clear
4:15 AM 55.4 °F 55.4 °F 100% 29.93 in 10.0 mi WSW 6.9 mph - N/A   Clear
4:35 AM 55.4 °F 55.4 °F 100% 29.94 in 10.0 mi SW 6.9 mph - N/A   Clear
4:55 AM 55.4 °F 55.4 °F 100% 29.94 in 10.0 mi SSW 6.9 mph - N/A   Clear
5:15 AM 55.4 °F 55.4 °F 100% 29.95 in 10.0 mi SW 6.9 mph - N/A   Clear
5:35 AM 55.4 °F 55.4 °F 100% 29.96 in 10.0 mi SW 6.9 mph - N/A   Clear
5:55 AM 55.4 °F 55.4 °F 100% 29.97 in 10.0 mi WSW 8.1 mph - N/A   Clear
6:15 AM 55.4 °F 55.4 °F 100% 29.97 in 10.0 mi WSW 8.1 mph - N/A   Clear
6:35 AM 57.2 °F 57.2 °F 100% 29.98 in 10.0 mi WSW 6.9 mph - N/A   Clear
6:55 AM 59.0 °F 59.0 °F 100% 29.98 in 10.0 mi West 5.8 mph - N/A   Clear
8:15 AM 64.4 °F 59.0 °F 83% 30.02 in 10.0 mi West 9.2 mph - N/A   Clear
8:35 AM 66.2 °F 57.2 °F 73% 30.02 in 10.0 mi West 8.1 mph - N/A   Clear
8:55 AM 66.2 °F 55.4 °F 68% 30.03 in 10.0 mi West 10.4 mph - N/A   Clear
9:15 AM 66.2 °F 55.4 °F 68% 30.03 in 10.0 mi WNW 8.1 mph - N/A   Clear
9:35 AM 68.0 °F 55.4 °F 64% 30.03 in 10.0 mi WNW 11.5 mph 17.3 mph N/A   Clear
9:55 AM 68.0 °F 53.6 °F 60% 30.03 in 10.0 mi WNW 13.8 mph 18.4 mph N/A   Clear
10:15 AM 68.0 °F 51.8 °F 56% 30.04 in 10.0 mi West 12.7 mph 20.7 mph N/A   Clear
10:35 AM 69.8 °F 51.8 °F 53% 30.04 in 10.0 mi West 13.8 mph 18.4 mph N/A   Partly Cloudy
10:55 AM 71.6 °F 48.2 °F 43% 30.04 in 10.0 mi West 10.4 mph 18.4 mph N/A   Partly Cloudy
11:15 AM 71.6 °F 46.4 °F 41% 30.05 in 10.0 mi NW 17.3 mph - N/A   Clear
11:35 AM 71.6 °F 44.6 °F 38% 30.05 in 10.0 mi WNW 18.4 mph 27.6 mph N/A   Partly Cloudy
11:55 AM 71.6 °F 44.6 °F 38% 30.05 in 10.0 mi NW 13.8 mph 23.0 mph N/A   Partly Cloudy
12:15 PM 73.4 °F 44.6 °F 36% 30.05 in 10.0 mi WNW 16.1 mph 21.9 mph N/A   Partly Cloudy
12:35 PM 73.4 °F 44.6 °F 36% 30.05 in 10.0 mi West 15.0 mph 21.9 mph N/A   Scattered Clouds
12:55 PM 73.4 °F 44.6 °F 36% 30.05 in 10.0 mi NW 12.7 mph 18.4 mph N/A   Partly Cloudy
1:15 PM 75.2 °F 42.8 °F 31% 30.06 in 10.0 mi West 18.4 mph 26.5 mph N/A   Partly Cloudy
1:35 PM 73.4 °F 42.8 °F 33% 30.06 in 10.0 mi NNW 13.8 mph 20.7 mph N/A   Clear
1:55 PM 75.2 °F 44.6 °F 34% 30.06 in 10.0 mi West 10.4 mph 19.6 mph N/A   Clear
2:15 PM 75.2 °F 44.6 °F 34% 30.06 in 10.0 mi WNW 16.1 mph 24.2 mph N/A   Clear
2:35 PM 75.2 °F 44.6 °F 34% 30.06 in 10.0 mi WNW 11.5 mph 17.3 mph N/A   Partly Cloudy
2:55 PM 75.2 °F 44.6 °F 34% 30.05 in 10.0 mi West 13.8 mph 21.9 mph N/A   Clear
3:15 PM 75.2 °F 44.6 °F 34% 30.06 in 10.0 mi WNW 10.4 mph 20.7 mph N/A   Clear
3:35 PM 75.2 °F 44.6 °F 34% 30.06 in 10.0 mi West 10.4 mph 25.3 mph N/A   Clear
3:55 PM 75.2 °F 44.6 °F 34% 30.06 in 10.0 mi NW 12.7 mph 18.4 mph N/A   Partly Cloudy
4:15 PM 75.2 °F 46.4 °F 36% 30.06 in 10.0 mi NW 15.0 mph 20.7 mph N/A   Scattered Clouds
4:35 PM 75.2 °F 44.6 °F 34% 30.06 in 10.0 mi NW 12.7 mph 19.6 mph N/A   Scattered Clouds
4:55 PM 75.2 °F 44.6 °F 34% 30.06 in 10.0 mi West 12.7 mph 16.1 mph N/A   Partly Cloudy
5:15 PM 75.2 °F 44.6 °F 34% 30.06 in 10.0 mi NW 10.4 mph - N/A   Partly Cloudy
5:35 PM 73.4 °F 44.6 °F 36% 30.06 in 10.0 mi West 11.5 mph 16.1 mph N/A   Partly Cloudy
5:55 PM 75.2 °F 44.6 °F 34% 30.07 in 10.0 mi NNW 11.5 mph - N/A   Partly Cloudy
6:15 PM 73.4 °F 44.6 °F 36% 30.07 in 10.0 mi NW 8.1 mph - N/A   Clear
6:35 PM 73.4 °F 44.6 °F 36% 30.07 in 10.0 mi NNW 11.5 mph - N/A   Clear
6:55 PM 73.4 °F 44.6 °F 36% 30.07 in 10.0 mi NW 6.9 mph - N/A   Clear
7:15 PM 73.4 °F 44.6 °F 36% 30.07 in 10.0 mi NW 6.9 mph - N/A   Clear
7:35 PM 71.6 °F 44.6 °F 38% 30.08 in 10.0 mi NW 4.6 mph - N/A   Clear
7:55 PM 69.8 °F 46.4 °F 43% 30.08 in 10.0 mi NW 3.5 mph - N/A   Clear
8:15 PM 68.0 °F 46.4 °F 46% 30.09 in 10.0 mi NW 4.6 mph - N/A   Clear
8:35 PM 66.2 °F 46.4 °F 49% 30.09 in 10.0 mi NW 4.6 mph - N/A   Clear
8:55 PM 66.2 °F 46.4 °F 49% 30.09 in 10.0 mi Calm Calm - N/A   Clear
9:15 PM 60.8 °F 50.0 °F 68% 30.10 in 10.0 mi Calm Calm - N/A   Clear
9:35 PM 62.6 °F 48.2 °F 59% 30.11 in 10.0 mi Calm Calm - N/A   Clear
9:55 PM 59.0 °F 48.2 °F 67% 30.11 in 10.0 mi Calm Calm - N/A   Clear
10:15 PM 59.0 °F 48.2 °F 67% 30.12 in 10.0 mi Calm Calm - N/A   Clear
10:35 PM 57.2 °F 53.6 °F 88% 30.12 in 10.0 mi Calm Calm - N/A   Clear
10:55 PM 57.2 °F 53.6 °F 88% 30.12 in 10.0 mi Calm Calm - N/A   Clear
11:15 PM 57.2 °F 53.6 °F 88% 30.12 in 10.0 mi Calm Calm - N/A   Clear
11:35 PM 57.2 °F 53.6 °F 88% 30.13 in 10.0 mi Calm Calm - N/A   Clear
11:55 PM 55.4 °F 53.6 °F 94% 30.13 in 10.0 mi Calm Calm - N/A   Clear